User: anonymous   Login
Location: Bishop�s Knoyle
(51.0728°N, 2.1714°W)
Time: 10:05:33
(UTC+00:00)
Language:

ISS - Orbit

View from above orbital plane
View from above orbital plane
View from above satellite
View from above satellite

Ground track
Ground track

The orbit data is extracted from the following two-line orbital elements,

1 25544U 98067A   21293.19797454 -.00012774  00000-0 -22615-3 0  9995
2 25544  51.6412  84.5975 0004038 124.1649 222.1799 15.48732894307969
Epoch (UTC): 20 October 2021 04:45:05
Eccentricity: 0.0004038
inclination: 51.6412°
perigee height: 417 km
apogee height: 423 km
right ascension of ascending node: 84.5975°
argument of perigee: 124.1649°
revolutions per day: 15.48732894
mean anomaly at epoch: 222.1799°
orbit number at epoch: 30796

The dashed part of the orbit path shows where the satellite is in the earth's shadow,  

DLR